^^
Station Historical Data
 
Daily Summary for April 20, 2019 Units:  Metric    English   Both
« Previous Day
Next Day »
Daily Weekly Monthly Yearly Custom
  Current: High: Low: Average:
Temperature: 1.5 °C 6.4 °C 1.5 °C 3.4 °C
Dew Point: -2.4 °C -1.7 °C -2.8 °C -2.5 °C
Humidity: 75% 75% 56% 65%
Wind Speed: 0.0km/h 0.0km/h 0.0km/h 0km/h
Wind Gust: 0.0km/h 0.0km/h - -
WindCalm - - North
Pressure: 1030.9 hPa 1030.9 hPa 1028.9 hPa -
Precipitation: 0.0 mm      
Historical Graphs
 
 
Tabular Data for April 20, 2019
Time Temperature Dew Point Pressure Wind Wind Speed Wind Gust Humidity Rainfall Rate (Hourly) solar Conditions
00:04 6.4 °C -1.8 °C 1028.9 hPa Calm     56% 0.0 mm WeatherDisplay:10.37 W/m2 CLR
00:09 6.2 °C -1.7 °C 1028.9 hPa Calm     57% 0.0 mm WeatherDisplay:10.37 W/m2 CLR
00:14 6.0 °C -1.9 °C 1028.9 hPa Calm     57% 0.0 mm WeatherDisplay:10.37 W/m2 CLR
00:19 5.8 °C -2.1 °C 1028.9 hPa Calm     57% 0.0 mm WeatherDisplay:10.37 W/m2 CLR
00:24 5.6 °C -2.3 °C 1028.9 hPa Calm     57% 0.0 mm WeatherDisplay:10.37 W/m2 CLR
00:29 5.4 °C -2.2 °C 1028.9 hPa Calm     58% 0.0 mm WeatherDisplay:10.37 W/m2 CLR
00:34 5.2 °C -2.4 °C 1029.9 hPa Calm     58% 0.0 mm WeatherDisplay:10.37 W/m2 CLR
00:39 5.0 °C -2.6 °C 1029.9 hPa Calm     58% 0.0 mm WeatherDisplay:10.37 W/m2 CLR
00:44 4.8 °C -2.6 °C 1029.9 hPa Calm     59% 0.0 mm WeatherDisplay:10.37 W/m2 CLR
00:49 4.6 °C -2.5 °C 1029.9 hPa Calm     60% 0.0 mm WeatherDisplay:10.37 W/m2 CLR
00:54 4.4 °C -2.5 °C 1029.9 hPa Calm     61% 0.0 mm WeatherDisplay:10.37 W/m2 CLR
00:59 4.3 °C -2.6 °C 1029.9 hPa Calm     61% 0.0 mm WeatherDisplay:10.37 W/m2 CLR
01:04 4.2 °C -2.4 °C 1028.9 hPa Calm     62% 0.0 mm WeatherDisplay:10.37 W/m2 CLR
01:09 4.1 °C -2.6 °C 1028.9 hPa Calm     62% 0.0 mm WeatherDisplay:10.37 W/m2 CLR
01:14 4.0 °C -2.4 °C 1028.9 hPa Calm     63% 0.0 mm WeatherDisplay:10.37 W/m2 CLR
01:19 3.9 °C -2.5 °C 1028.9 hPa Calm     63% 0.0 mm WeatherDisplay:10.37 W/m2 CLR
01:24 3.8 °C -2.6 °C 1028.9 hPa Calm     63% 0.0 mm WeatherDisplay:10.37 W/m2 CLR
01:29 3.8 °C -2.6 °C 1028.9 hPa Calm     63% 0.0 mm WeatherDisplay:10.37 W/m2 CLR
01:34 3.7 °C -2.7 °C 1028.9 hPa Calm     63% 0.0 mm WeatherDisplay:10.37 W/m2 CLR
01:39 3.7 °C -2.7 °C 1028.9 hPa Calm     63% 0.0 mm WeatherDisplay:10.37 W/m2 CLR
01:44 3.6 °C -2.6 °C 1028.9 hPa Calm     64% 0.0 mm WeatherDisplay:10.37 W/m2 CLR
01:49 3.6 °C -2.6 °C 1029.9 hPa Calm     64% 0.0 mm WeatherDisplay:10.37 W/m2 CLR
01:54 3.6 °C -2.6 °C 1029.9 hPa Calm     64% 0.0 mm WeatherDisplay:10.37 W/m2 CLR
01:59 3.5 °C -2.7 °C 1029.9 hPa Calm     64% 0.0 mm WeatherDisplay:10.37 W/m2 CLR
02:04 3.4 °C -2.6 °C 1029.9 hPa Calm     65% 0.0 mm WeatherDisplay:10.37 W/m2 CLR
02:09 3.3 °C -2.7 °C 1029.9 hPa Calm     65% 0.0 mm WeatherDisplay:10.37 W/m2 CLR
02:14 3.2 °C -2.8 °C 1029.9 hPa Calm     65% 0.0 mm WeatherDisplay:10.37 W/m2 CLR
02:19 3.1 °C -2.8 °C 1029.9 hPa Calm     65% 0.0 mm WeatherDisplay:10.37 W/m2 CLR
02:24 3.0 °C -2.7 °C 1029.9 hPa Calm     66% 0.0 mm WeatherDisplay:10.37 W/m2 CLR
02:29 2.9 °C -2.4 °C 1029.9 hPa Calm     68% 0.0 mm WeatherDisplay:10.37 W/m2 CLR
02:34 2.8 °C -2.5 °C 1029.9 hPa Calm     68% 0.0 mm WeatherDisplay:10.37 W/m2 CLR
02:39 2.6 °C -2.5 °C 1029.9 hPa Calm     69% 0.0 mm WeatherDisplay:10.37 W/m2 CLR
02:44 2.6 °C -2.5 °C 1029.9 hPa Calm     69% 0.0 mm WeatherDisplay:10.37 W/m2 CLR
02:49 2.4 °C -2.7 °C 1029.9 hPa Calm     69% 0.0 mm WeatherDisplay:10.37 W/m2 CLR
02:54 2.3 °C -2.8 °C 1029.9 hPa Calm     69% 0.0 mm WeatherDisplay:10.37 W/m2 CLR
02:59 2.3 °C -2.6 °C 1029.9 hPa Calm     70% 0.0 mm WeatherDisplay:10.37 W/m2 CLR
03:04 2.3 °C -2.6 °C 1029.9 hPa Calm     70% 0.0 mm WeatherDisplay:10.37 W/m2 CLR
03:09 2.1 °C -2.6 °C 1029.9 hPa Calm     71% 0.0 mm WeatherDisplay:10.37 W/m2 CLR
03:14 2.0 °C -2.7 °C 1029.9 hPa Calm     71% 0.0 mm WeatherDisplay:10.37 W/m2 CLR
03:19 2.0 °C -2.7 °C 1029.9 hPa Calm     71% 0.0 mm WeatherDisplay:10.37 W/m2 CLR
03:24 1.9 °C -2.8 °C 1029.9 hPa Calm     71% 0.0 mm WeatherDisplay:10.37 W/m2 CLR
03:29 1.8 °C -2.7 °C 1029.9 hPa Calm     72% 0.0 mm WeatherDisplay:10.37 W/m2 CLR
03:34 1.8 °C -2.6 °C 1029.9 hPa Calm     73% 0.0 mm WeatherDisplay:10.37 W/m2 CLR
03:39 1.7 °C -2.4 °C 1029.9 hPa Calm     74% 0.0 mm WeatherDisplay:10.37 W/m2 CLR
03:44 1.6 °C -2.6 °C 1029.9 hPa Calm     74% 0.0 mm WeatherDisplay:10.37 W/m2 CLR
03:49 1.6 °C -2.7 °C 1030.9 hPa Calm     73% 0.0 mm WeatherDisplay:10.37 W/m2 CLR
03:54 1.5 °C -2.4 °C 1030.9 hPa Calm     75% 0.0 mm WeatherDisplay:10.37 W/m2 CLR
03:59 1.5 °C -2.4 °C 1030.9 hPa Calm     75% 0.0 mm WeatherDisplay:10.37 W/m2 CLR
Sääasema nurmiin, Utti
Page generated in 0.94 seconds.